Francistown, Botswana

5:27 PM CAT on June 23, 2017 (GMT +0200)
Francistown

Weather History for FBFT - May, 2014

Change the Weather History Date:

Thursday, May 1, 2014

  Actual Average Record
Temperature  
Mean Temperature 63 °F -  
Max Temperature 84 °F 77 °F 92 °F (2012)
Min Temperature 42 °F 46 °F 42 °F (2007)
Degree Days  
Heating Degree Days 2    
Growing Degree Days 13 (Base 50)    
Moisture  
Dew Point 43 °F    
Average Humidity 58    
Maximum Humidity 93    
Minimum Humidity 20    
Precipitation  
Precipitation 0.00 in - - ()
Sea Level Pressure  
Sea Level Pressure 30.14 in    
Wind  
Wind Speed 3 mph ()    
Max Wind Speed 13 mph    
Max Gust Speed -    
Visibility 6.0 miles    
Events      
Averages and records for this station are not official NWS values.
T = Trace of Precipitation, MM = Missing Value Source: Averaged Metar Reports

Daily Weather History Graph

Daily Weather History Graph

Search for Another Location

Airport or City:

Trip Planner

Search our weather history database for the weather conditions in past years. The results will help you decide how hot, cold, wet, or windy it might be!

Date:

Astronomy

May. 01, 2014 Rise Set
Actual Time 6:27 AM CAT 5:46 PM CAT
Civil Twilight 6:04 AM CAT 6:09 PM CAT
Nautical Twilight 5:38 AM CAT 6:35 PM CAT
Astronomical Twilight 5:11 AM CAT 7:02 PM CAT
Moon 8:18 AM CAT (5/1) 7:41 PM CAT (5/1)
Length of Visible Light 12h 05m
Length of Day
11h 19m
Waxing Crescent, 5% of the Moon is Illuminated
May 1
Waxing Crescent
May 7
First Quarter
May 14
Full
May 21
Last Quarter
May 28
New

Hourly Weather History & Observations

Time (CAT) Temp. Dew Point Humidity Pressure Visibility Wind Dir Wind Speed Gust Speed Precip Events Conditions
12:00 AM 50.0 °F 46.4 °F 87% 30.12 in - Variable 1.2 mph - N/A   Clear
1:00 AM 48.2 °F 44.6 °F 87% 30.12 in - Calm Calm - N/A   Clear
2:00 AM 47 °F 43 °F 80%  in 6 mi 2.3 mph - -  
2:00 AM 48.2 °F 42.8 °F 82% 30.12 in - Variable 2.3 mph - N/A   Clear
3:00 AM 48.2 °F 44.6 °F 87% 30.12 in - WNW 4.6 mph - N/A   Clear
4:00 AM 46.4 °F 42.8 °F 87% 30.09 in - Variable 1.2 mph - N/A   Clear
5:00 AM 45 °F 38 °F 70%  in 6 mi SSW 1.2 mph - -  
5:00 AM 44.6 °F 39.2 °F 81% 30.09 in - Variable 1.2 mph - N/A   Clear
6:00 AM 42.8 °F 41.0 °F 93% 30.09 in - Variable 1.2 mph - N/A   Clear
7:00 AM 42.8 °F 37.4 °F 81% 30.12 in - Variable 2.3 mph - N/A   Clear
8:00 AM 58 °F 46 °F 56%  in 6 mi SSW 1.2 mph - -   Partly Cloudy
8:00 AM 59.0 °F 46.4 °F 63% 30.18 in - Variable 1.2 mph - N/A   Clear
10:00 AM 75.2 °F 44.6 °F 34% 30.21 in - East 12.7 mph - N/A   Clear
11:00 AM 77 °F 47 °F 24%  in 6 mi East 9.2 mph - -   Partly Cloudy
11:00 AM 77.0 °F 46.4 °F 34% 30.21 in - East 9.2 mph - N/A   Clear
12:00 PM 80.6 °F 44.6 °F 28% 30.18 in - East 9.2 mph - N/A   Clear
1:00 PM 82.4 °F 37.4 °F 20% 30.15 in - East 9.2 mph - N/A   Clear
2:00 PM 84.2 °F 41.0 °F 22% 30.12 in - ESE 6.9 mph - N/A   Clear
3:00 PM 84.2 °F 39.2 °F 20% 30.09 in - East 9.2 mph - N/A   Clear
4:00 PM 82.4 °F 39.2 °F 21% 30.09 in - East 10.4 mph - N/A   Clear
5:00 PM 80.6 °F 39.2 °F 23% 30.12 in - East 8.1 mph - N/A   Clear
6:00 PM 71.6 °F 42.8 °F 35% 30.12 in - SE 5.8 mph - N/A   Clear
7:00 PM 66.2 °F 44.6 °F 46% 30.15 in - SE 5.8 mph - N/A   Clear
8:00 PM 62.6 °F 44.6 °F 52% 30.15 in - SSE 6.9 mph - N/A   Clear
9:00 PM 53.6 °F 44.6 °F 72% 30.18 in - SE 4.6 mph - N/A   Clear
10:00 PM 51.8 °F 46.4 °F 82% 30.18 in - Variable 2.3 mph - N/A   Clear
11:00 PM 50 °F 44 °F 75%  in 6 mi SSE 3.5 mph - -   Partly Cloudy
11:00 PM 50.0 °F 44.6 °F 82% 30.18 in - SSE 3.5 mph - N/A   Clear